ELECTRON R/B (43166 NORAD) Tracking and Keplerian Element Data

This shows tracking and keplerian element data for the satellite.

Feedback or suggestion? Click here.




ElementValue
Catalog43166
NameELECTRON R/B
Epoch Orbit458
Epoch Day50.59990587
Epoch Year2018
RAAN110.2913
Inclination82.9194
Eccentricity0.0167715
Argument of Perigee114.1853
Mean Anonmoly247.7031
Mean Motion15.54662667
Decay Rate0.00037369
L11 43166U 18010D 18050.59990587 .00037369 -87978-6 29555-3 0 9999
L22 43166 82.9194 110.2913 0167715 114.1853 247.7031 15.54662667 4581

Live tracking and technical data element details for ELECTRON R/B (NORAD 43166). ELECTRON R/B can be tracked NOW for your location showing map with azimuth and elevation plus other details from your city location.

Track the satellite on the map from your city or location and see movement details for azimuth, elevation, latitude, longitude, range, height, and movement on the map or in text.







IsCatalogInMostPopularTable: catalog: 43166, numindb: 158
Update: records affected: 1



GetName: 43166 ELECTRON R/B

Hit Count: updated at: Wed, 14 Nov 2018 11:32:49 GMT